Hourly Weather Damenka

Today, 23 April, Friday

Time Temperature Precipitation Wind Pressure Humidity
00:00 +6°C° 0 mm 4 mps 741 mmHg 84%
01:00 +6°C° 0 mm 4 mps 741 mmHg 85%
02:00 +7°C° 0 mm 3 mps 741 mmHg 85%
03:00 +7°C° 0 mm 3 mps 741 mmHg 85%
04:00 +7°C° 0 mm 3 mps 741 mmHg 85%
05:00 +7°C° 0 mm 3 mps 741 mmHg 84%
06:00 +7°C° 0 mm 4 mps 741 mmHg 79%
07:00 +9°C° 0 mm 5 mps 740 mmHg 73%
08:00 +12°C° 0 mm 5 mps 740 mmHg 68%
09:00 +13°C° 0 mm 6 mps 740 mmHg 61%
10:00 +14°C° 0 mm 7 mps 740 mmHg 54%
11:00 +15°C° 0 mm 7 mps 739 mmHg 46%
12:00 +15°C° 0.1 mm 7 mps 739 mmHg 50%
13:00 +14°C° 0.1 mm 6 mps 739 mmHg 54%
14:00 +14°C° 0.1 mm 6 mps 738 mmHg 58%
15:00 +13°C° 0.4 mm 5 mps 738 mmHg 62%
16:00 +13°C° 0.4 mm 4 mps 738 mmHg 66%
17:00 +12°C° 0.4 mm 4 mps 737 mmHg 70%
18:00 +11°C° 1.5 mm 3 mps 737 mmHg 77%
19:00 +9°C° 1.5 mm 2 mps 737 mmHg 84%
20:00 +8°C° 1.5 mm 2 mps 737 mmHg 91%
21:00 +8°C° 1.1 mm 2 mps 736 mmHg 92%
22:00 +7°C° 1.1 mm 3 mps 736 mmHg 93%
23:00 +7°C° 1.1 mm 3 mps 736 mmHg 94%

Tomorrow, 24 April, Saturday

Time Temperature Precipitation Wind Pressure Humidity
00:00 +5°C° 1.1 mm 4 mps 735 mmHg 94%
01:00 +3°C° 1.1 mm 5 mps 735 mmHg 93%
02:00 +3°C° 1.1 mm 5 mps 735 mmHg 93%
03:00 +2°C° 0.3 mm 5 mps 735 mmHg 92%
04:00 +3°C° 0.3 mm 4 mps 735 mmHg 91%
05:00 +3°C° 0.3 mm 4 mps 735 mmHg 90%
06:00 +4°C° 0 mm 4 mps 735 mmHg 84%
07:00 +3°C° 0 mm 5 mps 735 mmHg 77%
08:00 +5°C° 0 mm 5 mps 735 mmHg 70%
09:00 +5°C° 0.1 mm 6 mps 735 mmHg 65%
10:00 +5°C° 0.1 mm 6 mps 735 mmHg 60%
11:00 +6°C° 0.1 mm 7 mps 735 mmHg 56%
12:00 +6°C° 0.2 mm 7 mps 735 mmHg 53%
13:00 +6°C° 0.2 mm 8 mps 735 mmHg 50%
14:00 +5°C° 0.2 mm 8 mps 735 mmHg 47%
15:00 +5°C° 0.1 mm 8 mps 735 mmHg 51%
16:00 +4°C° 0.1 mm 7 mps 735 mmHg 55%
17:00 +3°C° 0.1 mm 7 mps 735 mmHg 59%
18:00 +2°C° 0.1 mm 7 mps 735 mmHg 66%
19:00 0°C° 0.1 mm 8 mps 736 mmHg 72%
20:00 -1°C° 0.1 mm 8 mps 736 mmHg 79%
21:00 -1°C° 0 mm 8 mps 736 mmHg 81%
22:00 -1°C° 0 mm 8 mps 737 mmHg 83%
23:00 -2°C° 0 mm 7 mps 737 mmHg 85%

Day after tomorrow, 25 April, Sunday

Time Temperature Precipitation Wind Pressure Humidity
00:00 -2°C° 0 mm 7 mps 737 mmHg 84%
01:00 -2°C° 0 mm 7 mps 737 mmHg 84%
02:00 -3°C° 0 mm 7 mps 738 mmHg 83%
03:00 -3°C° 0 mm 6 mps 738 mmHg 83%
04:00 -3°C° 0 mm 6 mps 738 mmHg 83%
05:00 -2°C° 0 mm 5 mps 738 mmHg 83%
06:00 -2°C° 0 mm 6 mps 739 mmHg 76%
07:00 +1°C° 0 mm 6 mps 739 mmHg 70%
08:00 +2°C° 0 mm 7 mps 739 mmHg 63%
09:00 +3°C° 0 mm 7 mps 739 mmHg 57%
10:00 +4°C° 0 mm 7 mps 739 mmHg 51%
11:00 +5°C° 0 mm 7 mps 739 mmHg 44%
12:00 +6°C° 0 mm 7 mps 739 mmHg 44%
13:00 +6°C° 0 mm 7 mps 738 mmHg 43%
14:00 +8°C° 0 mm 7 mps 738 mmHg 42%
15:00 +6°C° 0.1 mm 7 mps 738 mmHg 54%
16:00 +5°C° 0.1 mm 6 mps 737 mmHg 66%
17:00 +4°C° 0.1 mm 6 mps 737 mmHg 79%
18:00 +3°C° 0.7 mm 5 mps 737 mmHg 82%
19:00 +2°C° 0.7 mm 5 mps 738 mmHg 85%
20:00 +1°C° 0.7 mm 4 mps 738 mmHg 88%
21:00 +1°C° 0 mm 3 mps 738 mmHg 89%
22:00 +1°C° 0 mm 3 mps 738 mmHg 90%
23:00 0°C° 0 mm 3 mps 738 mmHg 91%

26 April, Monday

Time Temperature Precipitation Wind Pressure Humidity
00:00 0°C° 0 mm 3 mps 738 mmHg 90%
01:00 -1°C° 0 mm 3 mps 738 mmHg 90%
02:00 -1°C° 0 mm 3 mps 738 mmHg 89%
03:00 -1°C° 0 mm 3 mps 738 mmHg 88%
04:00 -1°C° 0 mm 2 mps 738 mmHg 87%
05:00 -1°C° 0 mm 2 mps 738 mmHg 86%
06:00 0°C° 0 mm 3 mps 738 mmHg 79%
07:00 +2°C° 0 mm 3 mps 738 mmHg 72%
08:00 +3°C° 0 mm 3 mps 738 mmHg 65%
09:00 +4°C° 0.2 mm 3 mps 738 mmHg 60%
10:00 +5°C° 0.2 mm 4 mps 738 mmHg 56%
11:00 +6°C° 0.2 mm 4 mps 738 mmHg 51%
12:00 +6°C° 0.2 mm 4 mps 737 mmHg 50%
13:00 +6°C° 0.2 mm 4 mps 737 mmHg 48%
14:00 +7°C° 0.2 mm 4 mps 737 mmHg 47%
15:00 +7°C° 0 mm 3 mps 737 mmHg 46%
16:00 +7°C° 0 mm 3 mps 736 mmHg 46%
17:00 +7°C° 0 mm 2 mps 736 mmHg 45%
18:00 +6°C° 0 mm 2 mps 736 mmHg 53%
19:00 +5°C° 0 mm 2 mps 736 mmHg 61%
20:00 +4°C° 0 mm 2 mps 736 mmHg 68%
21:00 +3°C° 0 mm 2 mps 736 mmHg 72%
22:00 +3°C° 0 mm 2 mps 736 mmHg 75%
23:00 +3°C° 0 mm 2 mps 736 mmHg 78%

27 April, Tuesday

Time Temperature Precipitation Wind Pressure Humidity
00:00 +2°C° 0.1 mm 2 mps 736 mmHg 83%
01:00 +2°C° 0.1 mm 2 mps 736 mmHg 88%
02:00 +2°C° 0.1 mm 2 mps 736 mmHg 93%
03:00 +1°C° 0.4 mm 2 mps 736 mmHg 95%
04:00 0°C° 0.4 mm 3 mps 736 mmHg 96%
05:00 0°C° 0.4 mm 3 mps 736 mmHg 98%
06:00 +1°C° 0.2 mm 3 mps 736 mmHg 89%
07:00 +1°C° 0.2 mm 4 mps 736 mmHg 81%
08:00 +3°C° 0.2 mm 4 mps 736 mmHg 73%
09:00 +2°C° 0.2 mm 5 mps 736 mmHg 67%
10:00 +3°C° 0.2 mm 5 mps 736 mmHg 61%
11:00 +4°C° 0.2 mm 6 mps 736 mmHg 54%
12:00 +5°C° 0.3 mm 6 mps 736 mmHg 53%
13:00 +5°C° 0.3 mm 6 mps 736 mmHg 52%
14:00 +5°C° 0.3 mm 6 mps 736 mmHg 51%
15:00 +5°C° 0.3 mm 6 mps 736 mmHg 54%
16:00 +5°C° 0.3 mm 5 mps 736 mmHg 57%
17:00 +5°C° 0.3 mm 5 mps 736 mmHg 60%
18:00 +4°C° 0.1 mm 4 mps 736 mmHg 66%
19:00 +3°C° 0.1 mm 3 mps 737 mmHg 72%
20:00 +2°C° 0.1 mm 3 mps 737 mmHg 79%
21:00 +1°C° 0 mm 3 mps 737 mmHg 80%
22:00 +2°C° 0 mm 2 mps 737 mmHg 82%
23:00 +1°C° 0 mm 2 mps 738 mmHg 84%

28 April, Wednesday

Time Temperature Precipitation Wind Pressure Humidity
00:00 +1°C° 0 mm 2 mps 738 mmHg 85%
01:00 +1°C° 0 mm 2 mps 738 mmHg 85%
02:00 -1°C° 0 mm 2 mps 739 mmHg 86%
03:00 -1°C° 0 mm 2 mps 739 mmHg 86%
04:00 -1°C° 0 mm 3 mps 739 mmHg 86%
05:00 -1°C° 0 mm 3 mps 739 mmHg 86%
06:00 +1°C° 0 mm 3 mps 740 mmHg 79%
07:00 +3°C° 0 mm 4 mps 740 mmHg 72%
08:00 +3°C° 0 mm 5 mps 740 mmHg 64%
09:00 +5°C° 0 mm 5 mps 740 mmHg 62%
10:00 +6°C° 0 mm 5 mps 740 mmHg 60%
11:00 +7°C° 0 mm 5 mps 740 mmHg 58%
12:00 +7°C° 0 mm 4 mps 740 mmHg 58%
13:00 +7°C° 0 mm 4 mps 740 mmHg 58%
14:00 +7°C° 0 mm 4 mps 740 mmHg 58%
15:00 +9°C° 0 mm 3 mps 740 mmHg 60%
16:00 +9°C° 0 mm 2 mps 740 mmHg 61%
17:00 +10°C° 0 mm 1 mps 740 mmHg 63%
18:00 +8°C° 0 mm 2 mps 739 mmHg 66%
19:00 +7°C° 0 mm 2 mps 739 mmHg 69%
20:00 +6°C° 0 mm 2 mps 739 mmHg 72%
21:00 +5°C° 0 mm 3 mps 739 mmHg 73%
22:00 +5°C° 0 mm 3 mps 739 mmHg 75%
23:00 +4°C° 0 mm 3 mps 739 mmHg 76%
Show more